Погода Докшицы

Погода Докшицы : погода сейчас, прогноз погоды и архив. Всё, что Вы хотите узнать о погоде Докшицы!

Поиск расширенной информации на нашем сайте:

Другие новости

Новости СМИ2

Главная страница сайта

Новости сайта

03.07.2017

Напоминаем, что на нашем специализированном сайте Метеоцентр.Азия вы можете получить высокодетализированные автоматические прогнозы погоды по пунктам России, СНГ и мира в авиационном формате (включающие направление и скорость ветра, видимость, явления погоды, количество и форму облачности, нижнюю и верхнюю границу облачности).

Рекомендуем: Изучение английского на www.newmetod.ru

Погода Докшицы - сегодня

Время (UTC), дата Ветер
(°,м/с) 
Видим.   Явления Облачность Т
(°С)
Тd
(°С)
f(%) Тe
(°С)
Pmin
(гПа)
dP
(гПа)
Po
(мм)
O2
(г/м3)
Тmin Tmax R s Состояние
почвы
12 19.11.17 180 (Ю) 16000 м  {снег}  9/9 800 м 
[Sc]
+0.8 -0.1 94 -2  1002.7  -1.2  734  295           
18 19.11.17 200 (Ю) 5000 м  слаб. дождь{снег}  10/10 270 м 
[Frnb|Ns]
+1 +0.3 95 -2  1003.1  0.3  734  295    +1.1  0.6     
06 20.11.17 170 (Ю) 14000 м  {дождь}  9/9 800 м 
[Sc]
+1.3 +0.2 92 -1  1005.1  0.8  736  295  +1    0.1     
09 20.11.17 180 (Ю) 17000 м  {ливн. осадки}  9/9 800 м 
[Sc]
+2 +0.7 91 -1  1005.9  0.8  737  294           
12 20.11.17 200 (Ю) 17000 м  {ливн. осадки}  9/9 750 м 
[Sc]
+2.4 +0.5 87 1006.2  0.4  737  294           
18 20.11.17 110 (В) 5000 м  дымка  9/9 800 м 
[Sc]
+1 +0.4 96 +2  1007.2  0.3  737  296    +2.5  0.1     
06 21.11.17 030 (СВ) 3300 м  дымка  9/9 240 м 
[Sc]
+0.2 -0.1 98 +1  1008.4  0.5  738  297  -0.7         
09 21.11.17 тихо ()   3400 м  дымка  9/9 270 м 
[Sc]
+0.3 -0.2 96 1009.7  1.3  739  298           
12 21.11.17 270 (З) 9000 м  дымка  9/9 300 м 
[Sc]
+0.6 -0.8 90 -1  1009.8  0.1  739  297           
15 21.11.17 250 (З) 9000 м  дымка  9/9 720 м 
[Sc]
-0.2 -0.9 95 1010.6  0.7  740  298           
18 21.11.17 280 (З) 19000 м    9/9 750 м 
[Sc]
-1 -2.1 92 -3  1011.1  0.4  740  300    +0.9       
06 22.11.17 320 (СЗ) 8000 м  дымка{снег}  9/9 300 м 
[Sc]
-0.6 -1.2 96 -1  1013.1  0.7  742  300  -1.1    0.8  сухой снег
50-90% 
09 22.11.17 320 (СЗ) 8000 м  дымка  9/9 330 м 
[Sc]
+0.1 -1.2 91 -1  1015  1.9  743  299           
12 22.11.17 320 (СЗ) 20000 м    4/4 600 м 
[Sc]
+0.5 -2.2 82 +1  1015.4  0.5  743  299           
15 22.11.17 340 (С) 20000 м    8/8 800 м 
[Sc]
-0.2 -2.4 85 -2  1016.9  1.4  745  300           
18 22.11.17 350 (С) 20000 м    9/9 800 м 
[Sc]
-0.6 -2.7 86 1018.3  1.3  746  301    +1.3       
06 23.11.17 150 (ЮВ) 13000 м    6/0 средняя 
[Ac und]
-3 -3.8 94 -5  1020.6  747  305  -3.3         
09 23.11.17 150 (ЮВ) 20000 м    9/0 средняя 
[Ac und]
-1 -3.1 86 -4  1020.5  0.1  747  302           
12 23.11.17 160 (Ю) 20000 м    9/0 средняя 
[Ac As]
+0.1 -2.6 82 -3  1019.9  -0.5  747  301           
15 23.11.17 150 (ЮВ) 20000 м    9/0 средняя 
[Ac As]
+0.2 -2.3 83 -2  1019.4  -0.5  746  301           
18 23.11.17 170 (Ю) 20000 м    9/9 870 м 
[Sc]
+0.5 -2.3 81 -2  1019.1  -0.2  746  300    +0.6       
06 24.11.17 160 (Ю) 6{11}  13000 м    9/9 800 м 
[Sc]
+0.7 -0.7 90 -3  1016.6  -0.6  744  299  -0.2         
09 24.11.17 170 (Ю) 6{10}  12000 м    9/9 840 м 
[Sc]
+0.7 -0.8 90 -3  1017.6  0.9  745  300           
12 24.11.17 170 (Ю) 6{11}  14000 м  {ливн. осадки}  9/9 800 м 
[Sc]
+1.1 -0.6 88 -2  1017.2  -0.3  745  299           
18 24.11.17 180 (Ю) 6{10}  5000 м  дымка{ливн. осадки}  9/9 270 м 
[Sc]
+1 -0.3 91 -2  1016.7  -0.2  744  299    +1.2  0.3     
Время (UTC), дата Ветер
(°,м/с) 
Видим.   Явления Облачность Т
(°С)
Тd
(°С)
f(%) Тe
(°С)
Pmin
(гПа)
dP
(гПа)
Po
(мм)
O2
(г/м3)
Тmin Tmax R s Состояние
почвы

Для получения пояснительной информации подведите курсор к названию столбца.

ПОГОДА Докшицы - архив

Всё, что Вы хотите узнать о погоде Докшицы - удобно и подробно!

Выберите нужную дату (начиная с 1 января 2015* года) и нажмите кнопку "Найти".
Будут отображены архивные сводки погоды по пункту Докшицы, начиная с указанной даты.


Отображать данные в формате CSV (для использования в таблицах Excel)


Внимание! Наш архив погоды предназначен исключительно для личного некоммерческого использования в познавательных целях. Если Вам необходимы официальные справки о состоянии погоды (для производственных, юридических, коммерческих и т.п. целей), обращайтесь в органы Росгидромета.

*Примечание: данная дата относится к архиву по метеостанциям СССР (Россия, СНГ, Балтия).
Архив по метеостанциям Зарубежной Европы и Азии (кроме Китая) хранится 10 дней, по другим регионам земного шара (Китай, Африка, Америка, Австралия, Океания) - 1 день.

Докшицы - район местоположения метеостанции


Название, широта, долгота, высота метеостанции:
Докшицы 54.9°ш. 27.8°д. 193 м над ур. моря [Беларусь]

Дополнительная информация

В oтличие oт бoльшинства пoгoдных сайтoв мы публикуем пoдрoбную метеoинфoрмацию в детальнoм прoфессиoнальнoм фoрмате.

Характеристики температуры и влажнoсти вoздуха измеряются на высoте 2 м в тени вдали oт зданий и деревьев.
Скoрoсть ветра измеряется на высoте 10 м (на урoвне рoста челoвека скoрoсть ветра ниже в 1.5-2 раза). Если метеoстанция нахoдится в гoрoде или в лесу, тo скoрoсть ветра занижена на 2-4 м/с пo сравнению с oткрытым местoм. Скoрoсть ветра над акватoриями крупных рек и oзёр, а также на вершинах хoлмoв на 2-5 м/с выше, чем в oбычных услoвиях.
Атмoсфернoе давление в разных тoчках местнoсти мoжет значительнo oтличаться oт давления на метеoстанции, в зависимoсти oт услoвий рельефа (при пoдъёме на 10 м давление пoнижается примернo на 1 мм рт.ст.).